Weather History for KJYM - October, 2012

Change the Weather History Date:

Thursday, October 11, 2012

  Actual Average Record
Temperature  
Mean Temperature 48 °F -  
Max Temperature 60 °F 61 °F 84 °F (1962)
Min Temperature 35 °F 38 °F 20 °F (1964)
Degree Days  
Heating Degree Days 18    
Moisture  
Dew Point 31 °F    
Average Humidity 56    
Maximum Humidity 84    
Minimum Humidity 30    
Precipitation  
Precipitation 0.00 in - - ()
Sea Level Pressure  
Sea Level Pressure 30.13 in    
Wind  
Wind Speed 7 mph (SW)    
Max Wind Speed 23 mph    
Max Gust Speed 31 mph    
Visibility 10 miles    
Events      
Averages and records for this station are not official NWS values.
T = Trace of Precipitation, MM = Missing Value Source: NWS Daily Summary

Daily Weather History Graph

Daily Weather History Graph

Search for Another Location

Airport or City:

Trip Planner

Search our weather history database for the weather conditions in past years. The results will help you decide how hot, cold, wet, or windy it might be!

Date:

Astronomy

Oct. 11, 2012 Rise Set
Actual Time 7:46 AM EDT 7:02 PM EDT
Civil Twilight 7:18 AM EDT 7:30 PM EDT
Nautical Twilight 6:46 AM EDT 8:02 PM EDT
Astronomical Twilight 6:14 AM EDT 8:34 PM EDT
Moon 3:20 AM EDT (10/11) 4:41 PM EDT (10/11)
Length of Visible Light 12h 11m
Length of Day
11h 15m
Waning Crescent, 18% of the Moon is Illuminated
Oct 11
Waning Crescent
Oct 15
New
Oct 21
First Quarter
Oct 29
Full
Nov 6
Last Quarter

Hourly Weather History & Observations

Time (EDT) Temp. Windchill Dew Point Humidity Pressure Visibility Wind Dir Wind Speed Gust Speed Precip Events Conditions
12:14 AM 35.1 °F 32.2 °F 30.7 °F 84% 30.16 in 10.0 mi SSW 3.5 mph - N/A   Clear
12:35 AM 36.3 °F 33.7 °F 30.7 °F 80% 30.16 in 10.0 mi SSW 3.5 mph - N/A   Clear
12:54 AM 36.3 °F 33.7 °F 30.6 °F 80% 30.16 in 10.0 mi SSW 3.5 mph - N/A   Clear
1:15 AM 36.7 °F - 30.6 °F 78% 30.17 in 10.0 mi Calm Calm - N/A   Clear
1:34 AM 36.9 °F - 30.6 °F 78% 30.16 in 10.0 mi Calm Calm - N/A   Scattered Clouds
1:55 AM 37.0 °F - 30.0 °F 76% 30.16 in 10.0 mi Calm Calm - N/A   Scattered Clouds
2:15 AM 36.1 °F 33.5 °F 30.0 °F 78% 30.16 in 10.0 mi SW 3.5 mph - N/A   Scattered Clouds
2:34 AM 36.9 °F - 30.2 °F 77% 30.16 in 10.0 mi Calm Calm - N/A   Clear
2:55 AM 36.7 °F 34.1 °F 29.7 °F 76% 30.16 in 10.0 mi SW 3.5 mph - N/A   Clear
3:15 AM 36.3 °F - 29.7 °F 77% 30.17 in 10.0 mi Calm Calm - N/A   Clear
3:55 AM 36.9 °F 33.1 °F 29.7 °F 75% 30.16 in 10.0 mi SW 4.6 mph - N/A   Clear
4:15 AM 37.0 °F 33.3 °F 29.8 °F 75% 30.17 in 10.0 mi SW 4.6 mph - N/A   Clear
4:35 AM 36.7 °F 34.1 °F 29.7 °F 76% 30.17 in 10.0 mi WSW 3.5 mph - N/A   Clear
4:54 AM 36.3 °F 32.5 °F 29.1 °F 75% 30.16 in 10.0 mi SSW 4.6 mph - N/A   Clear
5:15 AM 37.0 °F 33.3 °F 29.7 °F 75% 30.16 in 10.0 mi SW 4.6 mph - N/A   Clear
5:34 AM 37.0 °F 31.6 °F 29.8 °F 75% 30.16 in 10.0 mi SW 6.9 mph - N/A   Clear
5:55 AM 36.0 °F 31.1 °F 29.7 °F 78% 30.17 in 10.0 mi SW 5.8 mph - N/A   Clear
6:15 AM 37.0 °F 32.4 °F 29.5 °F 74% 30.16 in 10.0 mi SW 5.8 mph - N/A   Clear
6:34 AM 37.0 °F 31.0 °F 29.5 °F 74% 30.16 in 10.0 mi SSW 8.1 mph - N/A   Clear
6:55 AM 36.1 °F 29.9 °F 28.9 °F 75% 30.17 in 10.0 mi SSW 8.1 mph - N/A   Clear
7:14 AM 36.7 °F 31.2 °F 28.9 °F 74% 30.18 in 10.0 mi SSW 6.9 mph - N/A   Clear
7:35 AM 36.9 °F 30.7 °F 29.1 °F 74% 30.17 in 10.0 mi SSW 8.1 mph - N/A   Clear
7:55 AM 36.9 °F 31.4 °F 28.8 °F 72% 30.17 in 10.0 mi SSW 6.9 mph - N/A   Clear
8:15 AM 37.0 °F 31.0 °F 28.9 °F 73% 30.17 in 10.0 mi SSW 8.1 mph - N/A   Clear
8:35 AM 38.5 °F 32.7 °F 29.5 °F 70% 30.17 in 10.0 mi SSW 8.1 mph - N/A   Clear
8:54 AM 40.1 °F 34.7 °F 29.8 °F 67% 30.17 in 10.0 mi SW 8.1 mph - N/A   Clear
9:15 AM 41.5 °F 36.4 °F 30.6 °F 65% 30.16 in 10.0 mi SSW 8.1 mph - N/A   Clear
9:35 AM 42.8 °F 37.5 °F 31.1 °F 63% 30.17 in 10.0 mi SW 9.2 mph - N/A   Clear
9:54 AM 44.8 °F 41.0 °F 31.1 °F 59% 30.17 in 10.0 mi SW 6.9 mph - N/A   Clear
10:15 AM 46.9 °F - 31.5 °F 55% 30.17 in 10.0 mi SW 8.1 mph - N/A   Clear
10:35 AM 48.6 °F - 30.7 °F 50% 30.16 in 10.0 mi SW 15.0 mph 21.9 mph N/A   Clear
10:54 AM 49.6 °F - 31.3 °F 49% 30.17 in 10.0 mi SW 16.1 mph 25.3 mph N/A   Clear
11:15 AM 51.3 °F - 31.5 °F 47% 30.16 in 10.0 mi SW 18.4 mph 26.5 mph N/A   Clear
11:34 AM 51.4 °F - 31.1 °F 46% 30.16 in 10.0 mi WSW 18.4 mph 27.6 mph N/A   Clear
11:55 AM 53.1 °F - 30.6 °F 42% 30.15 in 10.0 mi SW 23.0 mph 28.8 mph N/A   Clear
12:14 PM 53.8 °F - 31.1 °F 42% 30.14 in 10.0 mi WSW 12.7 mph 29.9 mph N/A   Clear
12:35 PM 54.9 °F - 30.0 °F 39% 30.13 in 10.0 mi SW 20.7 mph 29.9 mph N/A   Clear
12:55 PM 55.8 °F - 30.0 °F 37% 30.12 in 10.0 mi WSW 15.0 mph 27.6 mph N/A   Clear
1:14 PM 56.8 °F - 29.5 °F 35% 30.11 in 10.0 mi WSW 16.1 mph 25.3 mph N/A   Clear
1:55 PM 57.9 °F - 28.9 °F 33% 30.08 in 10.0 mi SW 16.1 mph 27.6 mph N/A   Clear
2:14 PM 58.6 °F - 28.9 °F 32% 30.09 in 10.0 mi WSW 15.0 mph 31.1 mph N/A   Clear
2:35 PM 58.8 °F - 28.2 °F 31% 30.07 in 10.0 mi SW 13.8 mph 29.9 mph N/A   Clear
2:55 PM 59.9 °F - 29.5 °F 32% 30.07 in 10.0 mi SW 17.3 mph 24.2 mph N/A   Clear
3:14 PM 59.7 °F - 28.2 °F 30% 30.08 in 10.0 mi WSW 18.4 mph 26.5 mph N/A   Clear
3:35 PM 59.5 °F - 27.7 °F 30% 30.07 in 10.0 mi SW 19.6 mph 27.6 mph N/A   Clear
3:54 PM 60.1 °F - 28.8 °F 30% 30.07 in 10.0 mi SW 17.3 mph 27.6 mph N/A   Clear
4:15 PM 60.1 °F - 28.2 °F 30% 30.06 in 10.0 mi SW 17.3 mph 27.6 mph N/A   Clear
4:35 PM 60.1 °F - 28.4 °F 30% 30.06 in 10.0 mi WSW 15.0 mph 20.7 mph N/A   Clear
4:54 PM 60.1 °F - 28.4 °F 30% 30.06 in 10.0 mi WSW 12.7 mph 21.9 mph N/A   Clear
5:15 PM 59.5 °F - 29.5 °F 32% 30.05 in 10.0 mi SW 12.7 mph 19.6 mph N/A   Clear
6:15 PM 58.1 °F - 30.4 °F 35% 30.06 in 10.0 mi WSW 12.7 mph 17.3 mph N/A   Clear
6:34 PM 57.6 °F - 30.7 °F 36% 30.06 in 10.0 mi WSW 9.2 mph 23.0 mph N/A   Clear
6:55 PM 56.7 °F - 31.6 °F 39% 30.07 in 10.0 mi WSW 8.1 mph - N/A   Clear
7:34 PM 54.7 °F - 32.4 °F 43% 30.07 in 10.0 mi SW 6.9 mph - N/A   Clear
7:55 PM 54.3 °F - 32.5 °F 44% 30.08 in 10.0 mi SW 5.8 mph - N/A   Clear
8:15 PM 53.1 °F - 32.7 °F 46% 30.08 in 10.0 mi SW 4.6 mph - N/A   Clear
8:34 PM 53.2 °F - 33.3 °F 47% 30.09 in 10.0 mi SW 6.9 mph - N/A   Clear
8:55 PM 53.4 °F - 33.6 °F 47% 30.09 in 10.0 mi SW 6.9 mph - N/A   Clear
9:15 PM 53.2 °F - 33.4 °F 47% 30.09 in 10.0 mi SW 5.8 mph - N/A   Clear
9:35 PM 52.7 °F - 33.6 °F 48% 30.08 in 10.0 mi SSW 6.9 mph - N/A   Clear
9:55 PM 52.3 °F - 33.4 °F 49% 30.09 in 10.0 mi SW 8.1 mph - N/A   Clear
10:15 PM 52.2 °F - 33.6 °F 49% 30.10 in 10.0 mi SW 8.1 mph - N/A   Clear
10:54 PM 50.5 °F - 35.8 °F 57% 30.14 in 10.0 mi North 10.4 mph 17.3 mph N/A   Scattered Clouds
11:15 PM 49.6 °F - 38.8 °F 66% 30.14 in 10.0 mi North 10.4 mph 16.1 mph N/A   Scattered Clouds
11:34 PM 49.3 °F - 39.2 °F 68% 30.15 in 10.0 mi North 10.4 mph - N/A   Mostly Cloudy
11:55 PM 48.6 °F - 38.8 °F 69% 30.17 in 10.0 mi North 10.4 mph 19.6 mph N/A   Overcast